Hourly Weather Abakumovo

Today, 21 October, Wednesday

Time Temperature Precipitation Wind Pressure Humidity
00:00 -2°C° 0 mm 3 mps 746 mmHg 91%
01:00 -2°C° 0 mm 3 mps 746 mmHg 91%
02:00 -2°C° 0 mm 2 mps 746 mmHg 91%
03:00 -2°C° 0 mm 2 mps 747 mmHg 91%
04:00 -3°C° 0 mm 2 mps 747 mmHg 91%
05:00 -3°C° 0 mm 2 mps 747 mmHg 91%
06:00 -2°C° 0 mm 2 mps 747 mmHg 90%
07:00 -2°C° 0 mm 2 mps 747 mmHg 88%
08:00 -2°C° 0 mm 2 mps 746 mmHg 87%
09:00 +1°C° 0 mm 1 mps 746 mmHg 83%
10:00 +2°C° 0 mm 1 mps 746 mmHg 78%
11:00 +3°C° 0 mm 1 mps 746 mmHg 74%
12:00 +3°C° 0 mm 1 mps 746 mmHg 74%
13:00 +3°C° 0 mm 1 mps 746 mmHg 74%
14:00 +4°C° 0 mm 1 mps 746 mmHg 74%
15:00 +3°C° 0 mm 1 mps 746 mmHg 79%
16:00 +2°C° 0 mm 1 mps 746 mmHg 85%
17:00 +1°C° 0 mm 1 mps 745 mmHg 90%
18:00 +1°C° 0 mm 1 mps 745 mmHg 92%
19:00 +1°C° 0 mm 1 mps 745 mmHg 94%
20:00 +1°C° 0 mm 1 mps 745 mmHg 95%
21:00 +1°C° 0 mm 1 mps 745 mmHg 96%
22:00 +2°C° 0 mm 1 mps 745 mmHg 96%
23:00 +2°C° 0 mm 1 mps 745 mmHg 97%

Tomorrow, 22 October, Thursday

Time Temperature Precipitation Wind Pressure Humidity
00:00 +1°C° 0 mm 2 mps 745 mmHg 97%
01:00 +1°C° 0 mm 2 mps 745 mmHg 97%
02:00 +2°C° 0 mm 2 mps 745 mmHg 98%
03:00 +2°C° 0 mm 2 mps 744 mmHg 97%
04:00 +2°C° 0 mm 2 mps 744 mmHg 97%
05:00 +2°C° 0 mm 2 mps 743 mmHg 97%
06:00 +2°C° 0 mm 2 mps 743 mmHg 97%
07:00 +2°C° 0 mm 3 mps 743 mmHg 96%
08:00 +2°C° 0 mm 3 mps 743 mmHg 96%
09:00 +2°C° 0 mm 3 mps 742 mmHg 95%
10:00 +3°C° 0 mm 3 mps 742 mmHg 93%
11:00 +3°C° 0 mm 3 mps 741 mmHg 92%
12:00 +3°C° 0.1 mm 3 mps 741 mmHg 93%
13:00 +4°C° 0.1 mm 3 mps 740 mmHg 93%
14:00 +4°C° 0.1 mm 3 mps 739 mmHg 93%
15:00 +4°C° 0.9 mm 3 mps 738 mmHg 94%
16:00 +4°C° 0.9 mm 4 mps 738 mmHg 95%
17:00 +4°C° 0.9 mm 4 mps 737 mmHg 95%
18:00 +4°C° 1 mm 4 mps 736 mmHg 96%
19:00 +4°C° 1 mm 4 mps 735 mmHg 96%
20:00 +5°C° 1 mm 4 mps 734 mmHg 96%
21:00 +5°C° 0.8 mm 3 mps 734 mmHg 96%
22:00 +5°C° 0.8 mm 3 mps 733 mmHg 97%
23:00 +5°C° 0.8 mm 3 mps 732 mmHg 97%

Day after tomorrow, 23 October, Friday

Time Temperature Precipitation Wind Pressure Humidity
00:00 +7°C° 1.2 mm 3 mps 732 mmHg 97%
01:00 +7°C° 1.2 mm 3 mps 732 mmHg 97%
02:00 +8°C° 1.2 mm 3 mps 732 mmHg 97%
03:00 +8°C° 0.4 mm 3 mps 732 mmHg 94%
04:00 +8°C° 0.4 mm 4 mps 732 mmHg 91%
05:00 +9°C° 0.4 mm 5 mps 732 mmHg 88%
06:00 +10°C° 0.1 mm 4 mps 733 mmHg 90%
07:00 +8°C° 0.1 mm 4 mps 733 mmHg 91%
08:00 +9°C° 0.1 mm 3 mps 733 mmHg 93%
09:00 +10°C° 0.2 mm 4 mps 733 mmHg 89%
10:00 +10°C° 0.2 mm 4 mps 733 mmHg 86%
11:00 +11°C° 0.2 mm 4 mps 733 mmHg 83%
12:00 +10°C° 0 mm 4 mps 733 mmHg 84%
13:00 +10°C° 0 mm 4 mps 733 mmHg 84%
14:00 +10°C° 0 mm 4 mps 733 mmHg 85%
15:00 +9°C° 0.1 mm 3 mps 733 mmHg 88%
16:00 +9°C° 0.1 mm 3 mps 732 mmHg 90%
17:00 +9°C° 0.1 mm 3 mps 732 mmHg 93%
18:00 +9°C° 1.5 mm 3 mps 732 mmHg 93%
19:00 +9°C° 1.5 mm 3 mps 731 mmHg 92%
20:00 +9°C° 1.5 mm 3 mps 731 mmHg 92%
21:00 +9°C° 0.2 mm 3 mps 731 mmHg 92%
22:00 +8°C° 0.2 mm 4 mps 731 mmHg 91%
23:00 +7°C° 0.2 mm 4 mps 731 mmHg 90%

24 October, Saturday

Time Temperature Precipitation Wind Pressure Humidity
00:00 +7°C° 0 mm 4 mps 731 mmHg 89%
01:00 +8°C° 0 mm 4 mps 732 mmHg 87%
02:00 +8°C° 0 mm 4 mps 732 mmHg 86%
03:00 +7°C° 0.1 mm 4 mps 733 mmHg 85%
04:00 +7°C° 0.1 mm 4 mps 733 mmHg 85%
05:00 +7°C° 0.1 mm 4 mps 733 mmHg 84%
06:00 +6°C° 0 mm 4 mps 734 mmHg 83%
07:00 +6°C° 0 mm 4 mps 734 mmHg 82%
08:00 +5°C° 0 mm 4 mps 735 mmHg 81%
09:00 +5°C° 0 mm 4 mps 735 mmHg 80%
10:00 +5°C° 0 mm 4 mps 736 mmHg 79%
11:00 +5°C° 0 mm 4 mps 737 mmHg 78%
12:00 +5°C° 0 mm 3 mps 737 mmHg 77%
13:00 +5°C° 0 mm 3 mps 737 mmHg 77%
14:00 +5°C° 0 mm 3 mps 737 mmHg 76%
15:00 +5°C° 0 mm 2 mps 737 mmHg 79%
16:00 +5°C° 0 mm 2 mps 738 mmHg 82%
17:00 +5°C° 0 mm 1 mps 738 mmHg 85%
18:00 +5°C° 0 mm 1 mps 738 mmHg 86%
19:00 +5°C° 0 mm 1 mps 738 mmHg 86%
20:00 +4°C° 0 mm 0 mps 738 mmHg 87%
21:00 +4°C° 0 mm 0 mps 738 mmHg 87%
22:00 +4°C° 0 mm 1 mps 739 mmHg 88%
23:00 +4°C° 0 mm 1 mps 739 mmHg 88%

25 October, Sunday

Time Temperature Precipitation Wind Pressure Humidity
00:00 +4°C° 0 mm 1 mps 739 mmHg 89%
01:00 +4°C° 0 mm 1 mps 739 mmHg 90%
02:00 +3°C° 0 mm 1 mps 739 mmHg 90%
03:00 +3°C° 0 mm 1 mps 739 mmHg 91%
04:00 +3°C° 0 mm 1 mps 739 mmHg 91%
05:00 +4°C° 0 mm 1 mps 739 mmHg 91%
06:00 +4°C° 0 mm 1 mps 739 mmHg 90%
07:00 +4°C° 0 mm 1 mps 739 mmHg 90%
08:00 +4°C° 0 mm 1 mps 739 mmHg 89%
09:00 +4°C° 0 mm 2 mps 739 mmHg 87%
10:00 +4°C° 0 mm 2 mps 740 mmHg 85%
11:00 +5°C° 0 mm 2 mps 740 mmHg 83%
12:00 +5°C° 0 mm 2 mps 740 mmHg 83%
13:00 +5°C° 0 mm 2 mps 740 mmHg 83%
14:00 +6°C° 0 mm 1 mps 740 mmHg 83%
15:00 +5°C° 0 mm 1 mps 740 mmHg 86%
16:00 +5°C° 0 mm 1 mps 741 mmHg 90%
17:00 +4°C° 0 mm 1 mps 741 mmHg 93%
18:00 +3°C° 0 mm 1 mps 741 mmHg 93%
19:00 +3°C° 0 mm 1 mps 742 mmHg 94%
20:00 +2°C° 0 mm 1 mps 742 mmHg 94%
21:00 +2°C° 0 mm 1 mps 743 mmHg 94%
22:00 +2°C° 0 mm 1 mps 743 mmHg 94%
23:00 +1°C° 0 mm 1 mps 743 mmHg 94%

26 October, Monday

Time Temperature Precipitation Wind Pressure Humidity
00:00 +1°C° 0 mm 1 mps 743 mmHg 93%
01:00 +1°C° 0 mm 1 mps 744 mmHg 92%
02:00 +1°C° 0 mm 1 mps 744 mmHg 91%
03:00 +1°C° 0 mm 1 mps 744 mmHg 90%
04:00 +1°C° 0 mm 1 mps 745 mmHg 90%
05:00 +1°C° 0 mm 1 mps 745 mmHg 89%
06:00 +1°C° 0 mm 1 mps 746 mmHg 87%
07:00 +2°C° 0 mm 1 mps 746 mmHg 85%
08:00 +2°C° 0 mm 1 mps 747 mmHg 83%
09:00 +3°C° 0 mm 1 mps 747 mmHg 79%
10:00 +4°C° 0 mm 0 mps 747 mmHg 75%
11:00 +5°C° 0 mm 0 mps 748 mmHg 71%
12:00 +5°C° 0 mm 0 mps 748 mmHg 73%
13:00 +6°C° 0 mm 1 mps 748 mmHg 74%
14:00 +7°C° 0 mm 1 mps 749 mmHg 76%
15:00 +6°C° 0 mm 1 mps 749 mmHg 80%
16:00 +5°C° 0 mm 1 mps 749 mmHg 85%
17:00 +4°C° 0 mm 1 mps 749 mmHg 90%
18:00 +3°C° 0 mm 1 mps 750 mmHg 91%
19:00 +3°C° 0 mm 1 mps 750 mmHg 93%
20:00 +3°C° 0 mm 1 mps 750 mmHg 94%
21:00 +3°C° 0 mm 1 mps 750 mmHg 94%
22:00 +3°C° 0 mm 1 mps 751 mmHg 95%
23:00 +3°C° 0 mm 1 mps 751 mmHg 95%

27 October, Tuesday

Time Temperature Precipitation Wind Pressure Humidity
00:00 +3°C° 0 mm 1 mps 751 mmHg 96%
01:00 +3°C° 0 mm 1 mps 751 mmHg 96%
02:00 +2°C° 0 mm 2 mps 751 mmHg 96%
03:00 +2°C° 0 mm 2 mps 752 mmHg 95%
04:00 +2°C° 0 mm 2 mps 752 mmHg 95%
05:00 +2°C° 0 mm 2 mps 752 mmHg 95%
06:00 +2°C° 0 mm 2 mps 752 mmHg 94%
07:00 +2°C° 0 mm 2 mps 752 mmHg 94%
08:00 +3°C° 0 mm 2 mps 752 mmHg 93%
09:00 +4°C° 0 mm 2 mps 752 mmHg 89%
10:00 +5°C° 0 mm 2 mps 752 mmHg 85%
11:00 +5°C° 0 mm 3 mps 752 mmHg 81%
12:00 +7°C° 0 mm 3 mps 752 mmHg 81%
13:00 +7°C° 0 mm 3 mps 752 mmHg 81%
14:00 +7°C° 0 mm 3 mps 751 mmHg 81%
15:00 +5°C° 0 mm 3 mps 751 mmHg 84%
16:00 +5°C° 0 mm 3 mps 751 mmHg 87%
17:00 +4°C° 0 mm 3 mps 751 mmHg 89%
18:00 +4°C° 0 mm 3 mps 751 mmHg 89%
19:00 +4°C° 0 mm 3 mps 751 mmHg 88%
20:00 +4°C° 0 mm 3 mps 751 mmHg 87%
21:00 +3°C° 0 mm 3 mps 751 mmHg 87%
22:00 +3°C° 0 mm 3 mps 751 mmHg 87%
23:00 +3°C° 0 mm 3 mps 750 mmHg 88%
Show more